Location: Crescent
(42.8242°N, 73.7329°W)
Time: 05:56:02
(UTC+00:00)

Tiros 1 - Pass Details

Date: 18 February 2026
Orbit: 618 x 649 km, 48.4° (Epoch: 9 March)

Event Time Altitude Azimuth Distance (km) Brightness Sun altitude
Rises 20:00:07 0° 289° (WNW) 2,889 10.9 23.1°
Reaches altitude 10° 20:02:47 10° 275° (W) 1,979 10.4 22.8°
Maximum altitude 20:06:21 23° 223° (SW) 1,309 12.0 22.3°
Drops below altitude 10° 20:09:56 10° 171° (S) 1,972 10.2 21.8°
Sets 20:12:36 0° 156° (SSE) 2,877 10.7 21.4°
